Regional Weather Roundup
Issued by NWS

Home | Current Version | Previous Version | Text Only | Print | Product List | Glossary Off
Versions: 1 2 3 4 5 6 7 8 9 10 11 12 13 14 15 16 17 18 19 20 21 22 23 24 25 26 27 28 29 30 31 32 33 34 35 36 37 38 39 40 41 42 43 44 45 46 47 48 49 50

000
ASUS43 KMKX 222111
RWRWI

WISCONSIN REGIONAL WEATHER ROUNDUP
NATIONAL WEATHER SERVICE MILWAUKEE/SULLIVAN WI
300 PM CST MON DEC 22 2014

NOTE: "FAIR" INDICATES FEW OR NO CLOUDS BELOW 12,000 FEET WITH NO
SIGNIFICANT WEATHER AND/OR OBSTRUCTIONS TO VISIBILITY.

WIZ001-002-006>008-014>016-023>028-222200-
NORTHWEST WISCONSIN

CITY           SKY/WX    TMP DP  RH WIND       PRES   REMARKS
SUPERIOR ARPT  LGT RAIN  36  34  95 E5        29.70R WCI  32
ASHLAND        CLOUDY    36  33  89 VRB3      29.73R
HAYWARD        CLOUDY    35  32  88 SE8       29.68S FOG     WCI  29
SIREN          CLOUDY    36  34  92 SE7       29.66R FOG     WCI  30
CUMBERLAND     CLOUDY    34  32  93 SE9       29.65S FOG     WCI  26
RICE LAKE      CLOUDY    36  33  87 E9        29.68S FOG     WCI  29
CHETEK         CLOUDY    36  33  90 E9        29.67S FOG     WCI  29
LADYSMITH      CLOUDY    36  33  89 E9        29.71S FOG     WCI  29
EAU CLAIRE     PTSUNNY   39  33  79 E10       29.66S WCI  32
MENOMONIE      PTSUNNY   39  35  85 E12       29.65S FOG     WCI  32
NEW RICHMOND   CLOUDY    37  36  96 E7        29.63R FOG     WCI  31
OSCEOLA        RAIN      36  36 100 E9        29.65S WCI  29
$$

WIZ003>005-009-010-017-018-222200-
NORTH CENTRAL WISCONSIN

CITY           SKY/WX    TMP DP  RH WIND       PRES   REMARKS
MANITOWISH WTR CLOUDY    32  32 100 SE7       29.72S FOG     WCI  26
ARBOR VITAE    CLOUDY    35  34  93 SE7       29.73S FOG     WCI  30
WOODRUFF       CLOUDY    35  34  93 SE7       29.73S FOG     WCI  30
RHINELANDER    CLOUDY    33  32  96 SE7       29.75S FOG     WCI  27
EAGLE RIVER    CLOUDY    33  33 100 SE7       29.75S FOG     WCI  27
LAND O LAKES   CLOUDY    34  33  97 SE6       29.76S FOG     WCI  28
PHILLIPS       CLOUDY    33  32  95 SE9       29.71R FOG     WCI  25
TOMAHAWK       CLOUDY    33  32  96 SE5       29.74S FOG     WCI  28
MEDFORD        CLOUDY    34  32  92 E7        29.70S FOG     WCI  28
MERRILL        CLOUDY    34  32  94 E8        29.73F FOG     WCI  27
$$

WIZ029-030-035-036-043>047-222200-
CENTRAL WISCONSIN

CITY           SKY/WX    TMP DP  RH WIND       PRES   REMARKS
WAUSAU         CLOUDY    34  32  92 E8        29.72F FOG     WCI  27
MOSINEE        NOT AVBL
MARSHFIELD     CLOUDY    36  31  82 SE13      29.70S HAZE    WCI  27
STEVENS POINT  CLOUDY    34  31  88 E12G17    29.73F FOG     WCI  25
WAUPACA        CLOUDY    38  32  78 E10G16    29.76F HAZE    WCI  31
WAUTOMA        CLOUDY    38  32  79 E9        29.74F WCI  31
WISC RAPIDS    CLOUDY    37  29  72 VRB7      29.72F WCI  32
CAMP DOUGLAS   DRIZZLE   36  36 100 SE14      29.68F WCI  27
$$

WIZ011>013-019>022-031-037>040-048>050-222200-
NORTHEAST WISCONSIN

CITY           SKY/WX    TMP DP  RH WIND       PRES   REMARKS
ANTIGO         CLOUDY    32  32  99 SE15      29.75F FOG     WCI  22
SHAWANO        CLOUDY    38  32  81 E8        29.80S WCI  32
OCONTO         CLOUDY    34  32  92 SE8       29.83S WCI  27
STURGEON BAY   CLOUDY    36  28  75 SE10G16   29.85S WCI  28
GREEN BAY      CLOUDY    36  32  85 E12       29.80F FOG     WCI  28
MANITOWOC      CLOUDY    38  33  82 SE13G21   29.81F WCI  30
APPLETON       MOCLDY    36  30  80 SE14      29.77F HAZE    WCI  27
CLINTONVILLE   CLOUDY    36  32  87 SE10      29.78F FOG     WCI  28
OSHKOSH        CLOUDY    37  31  78 SE12      29.76F HAZE    WCI  29
$$

WIZ032>034-041-042-053>061-222200-
SOUTHWEST WISCONSIN

CITY           SKY/WX    TMP DP  RH WIND       PRES   REMARKS
LA CROSSE      CLOUDY    40  34  79 SE7       29.64F
SPARTA         DRIZZLE   37  34  87 SE8       29.67F WCI  31
VIROQUA        CLOUDY    34  34 100 E12       29.62F WCI  26
BOSCOBEL       LGT RAIN  36  34  92 VRB5      29.64F FOG     WCI  32
PRAIRIE DU CHI LGT RAIN  37  33  88 E7        29.60F WCI  31
PLATTEVILLE    CLOUDY    35  34  96 E16       29.61F WCI  25
$$

WIZ056-057-062-063-064-067-068-222200-
SOUTH CENTRAL WISCONSIN

CITY           SKY/WX    TMP DP  RH WIND       PRES   REMARKS
REEDSBURG      LGT RAIN  34  33  94 E5        29.68F WCI  30
BARABOO/DELLS  MIX PCPN  33  32  94 E8        29.69F WCI  27
LONE ROCK      LGT RAIN  39  33  79 E13       29.66F WCI  31
MINERAL POINT  LGT RAIN  36  34  93 E14       29.60F WCI  27
MADISON        LGT RAIN  35  33  92 E13       29.68F FOG     WCI  26
MIDDLETON      CLOUDY    35  35  98 E9        29.68F WCI  28
WATERTOWN      RAIN      35  35 100 E12       29.71F WCI  26
MONROE         RAIN      34  34 100 E13G21    29.63F WCI  25
JANESVILLE     DRIZZLE   37  36  93 E13G18    29.67F FOG     WCI  29
$$

WIZ051-052-058>065-066-070>072-222200-
SOUTHEAST WISCONSIN

CITY           SKY/WX    TMP DP  RH WIND       PRES   REMARKS
MILWAUKEE      LGT RAIN  36  33  89 E13       29.76F FOG     WCI  27
WAUKESHA       LGT RAIN  34  32  93 E14       29.74F VSB 1   WCI  24
MILWAUKEE/TIMM LGT RAIN  36  32  87 E8        29.76F FOG     WCI  29
RACINE         LGT RAIN  36  33  89 E14       29.77F FOG     WCI  27
BURLINGTON     MIX PCPN  33  33  98 E13       29.72F WCI  24
KENOSHA        LGT SNOW  36  34  92 E13       29.74F FOG     WCI  27
FOND DU LAC    MIX PCPN  36  32  85 SE12      29.76S FOG     WCI  28
SHEBOYGAN      LGT RAIN  36  32  85 SE9       29.79F FOG     WCI  29
WEST BEND      LGT RAIN  34  32  93 E7        29.76F WCI  28
JUNEAU         LGT RAIN  34  32  93 E10       29.73F WCI  26
$$

LSZ147-162-222200-
LAKE SUPERIOR

STATION/POSITION TIME  TEMP    WIND        PRES    WAVE
                       AIR SEA DIR/SP/G            HT/PER
                 (UTC) (F)     (DEG/KT/KT) (MB)    (FT/S)
DEVILS ISLAND    2100   36     120/  2/  3 1007.7R
PORT WING        2000   38     140/  2/  5 1006.1
SAXON HARBOR     2000   38     180/  4/  9 1006.8R
$$

LMZ867-665-643>646-222200-
LAKE MICHIGAN

STATION/POSITION TIME  TEMP    WIND        PRES    WAVE
                       AIR SEA DIR/SP/G            HT/PER
                 (UTC) (F)     (DEG/KT/KT) (MB)    (FT/S)
CHAMBERS ISLAND  2000   35     120/  6/ 12 1011.5S
NORTHPORT PIER   2000   36     150/ 12/ 16 1011.5F
SISTER BAY       2043          130/ 11/ 18   N/A
ALGOMA LAKESHORE 2015          170/ 20/ 22   N/A
KEWAUNEE LAKESHO 2000   36     140/ 13/ 17 1009.5F
SHEBOYGAN LAKESH 2100   37 38  130/ 21/ 22 1009.5F
PORT WASHINGTON  2040   37     120/ 13/ 15 1009.5F
MILWAUKEE LAKESH 2000   36     100/ 13/ 14   N/A
KENOSHA   LAKESH 2100   36     120/ 15/ 17 1007.5F
$$

TC  - TEMPERATURE IN CELSIUS
VSB - VISIBILITY IN STATUTE MILES
WCI - WIND CHILL INDEX
HX  - HEAT INDEX



USA.gov is the U.S. government's official web portal to all federal, state and local government web resources and services.